FW2272 Weather Reports


Display with metric or nautical units.
time (UTC)temp
F
wind
direction
speed
MPH
gust
MPH
rain 1hr
in
rain 24hr
in
rain mn
in
humidity
%
barometer
mb
20260509105210 72 223 0.0 0.0 0.00 0.00 0.00 98 1013.2
20260509104709 72 247 0.0 0.0 0.00 0.00 0.00 98 1013.2
20260509104213 72 232 0.0 0.0 0.00 0.00 0.00 98 1013.2
20260509103710 72 244 0.0 0.0 0.00 0.00 0.00 98 1013.2
20260509103213 72 228 0.0 0.0 0.00 0.00 0.00 97 1013.2
20260509102713 72 222 0.0 0.0 0.00 0.00 0.00 97 1013.2
20260509102213 72 238 0.0 0.0 0.00 0.00 0.00 97 1013.2
20260509101711 72 199 0.0 0.0 0.00 0.00 0.00 97 1013.2
20260509101214 72 239 0.0 0.0 0.00 0.00 0.00 97 1013.2
20260509100712 72 211 3.0 0.0 0.00 0.00 0.00 97 1013.2
20260509100211 72 260 0.0 0.0 0.00 0.00 0.00 97 1012.9
20260509095713 72 102 0.0 0.0 0.00 0.00 0.00 97 1012.9
20260509095213 72 223 0.0 0.0 0.00 0.00 0.00 97 1012.5
20260509094714 72 224 0.0 0.0 0.00 0.00 0.00 97 1012.5
20260509094213 72 227 0.0 0.0 0.00 0.00 0.00 97 1011.9
20260509093712 72 160 0.0 0.0 0.00 0.00 0.00 97 1012.2
20260509093212 72 202 0.0 0.0 0.00 0.00 0.00 97 1011.9
20260509092710 72 162 0.0 0.0 0.00 0.00 0.00 97 1012.2
20260509092209 72 235 0.0 0.0 0.00 0.00 0.00 97 1012.2
20260509091715 72 222 0.0 0.0 0.00 0.00 0.00 97 1012.2
20260509091214 72 264 0.0 0.0 0.00 0.00 0.00 97 1012.2
20260509090715 72 185 0.0 0.0 0.00 0.00 0.00 97 1012.5
20260509090215 72 197 0.0 0.0 0.00 0.00 0.00 97 1012.2
20260509085714 72 201 0.0 0.0 0.00 0.00 0.00 97 1012.2
20260509085209 72 200 0.0 0.0 0.00 0.00 0.00 97 1012.5
20260509084716 72 210 0.0 0.0 0.00 0.00 0.00 97 1012.2
20260509084214 72 184 0.0 0.0 0.00 0.00 0.00 97 1012.5
20260509083715 72 190 0.0 0.0 0.00 0.00 0.00 97 1012.5
20260509083216 72 203 0.0 0.0 0.00 0.00 0.00 97 1012.5
20260509082715 72 229 0.0 0.0 0.00 0.00 0.00 97 1012.5
20260509082213 72 187 0.0 0.0 0.00 0.00 0.00 96 1012.5
20260509081715 72 195 0.0 0.0 0.00 0.00 0.00 96 1012.5
20260509081213 72 195 0.0 0.0 0.00 0.00 0.00 96 1012.9
20260509080715 72 195 0.0 0.0 0.00 0.00 0.00 96 1012.9
20260509080214 72 177 0.0 0.0 0.00 0.00 0.00 96 1012.9
20260509075715 72 181 0.0 0.0 0.00 0.00 0.00 96 1012.5
20260509075215 72 189 0.0 0.0 0.00 0.00 0.00 96 1012.2
20260509074712 72 182 0.0 0.0 0.00 0.00 0.00 96 1012.2
20260509074213 72 175 2.0 0.0 0.00 0.00 0.00 96 1012.2
20260509073714 72 113 2.0 0.0 0.00 0.00 0.00 96 1012.5
20260509073214 72 192 0.0 0.0 0.00 0.00 0.00 96 1012.5
20260509072712 72 161 2.0 0.0 0.00 0.00 0.00 96 1012.5
20260509072216 72 199 0.0 0.0 0.00 0.00 0.00 96 1012.5
20260509071713 72 171 0.0 0.0 0.00 0.00 0.00 96 1012.5
20260509071212 72 135 3.0 0.0 0.00 0.00 0.00 96 1012.5
20260509070713 72 149 3.0 0.0 0.00 0.00 0.00 96 1012.5
20260509070212 72 154 2.0 0.0 0.00 0.00 0.00 96 1012.5
20260509065712 72 190 3.0 0.0 0.00 0.00 0.00 96 1012.5
20260509065211 72 197 0.0 0.0 0.00 0.00 0.00 96 1012.5
20260509064713 72 173 0.0 0.0 0.00 0.00 0.00 96 1012.9
20260509064211 72 191 1.0 0.0 0.00 0.00 0.00 96 1012.9
20260509063711 72 184 0.0 0.0 0.00 0.00 0.00 95 1012.9
20260509063212 72 190 0.0 0.0 0.00 0.00 0.00 95 1012.9
20260509062713 72 224 0.0 0.0 0.00 0.00 0.00 95 1012.9
20260509062213 72 196 0.0 0.0 0.00 0.00 0.00 95 1012.9
20260509061714 72 182 0.0 0.0 0.00 0.00 0.00 95 1013.2
20260509061211 72 195 0.0 0.0 0.00 0.00 0.00 95 1013.2
20260509060714 72 194 0.0 0.0 0.00 0.00 0.00 95 1013.2
20260509060209 72 164 0.0 0.0 0.00 0.00 0.00 95 1013.2
20260509055714 72 195 0.0 0.0 0.00 0.00 0.00 95 1013.2
20260509055215 72 192 0.0 0.0 0.00 0.00 0.00 95 1013.2
20260509054713 72 149 3.0 0.0 0.00 0.00 0.00 95 1013.2
20260509054211 71 195 2.0 0.0 0.00 0.00 0.00 95 1013.5
20260509053710 71 184 0.0 0.0 0.00 0.00 0.00 95 1013.5
20260509053213 71 175 0.0 0.0 0.00 0.00 0.00 95 1013.5
20260509052711 71 199 1.0 0.0 0.00 0.00 0.00 95 1013.5
20260509052213 71 132 2.0 0.0 0.00 0.00 0.00 95 1013.5
20260509051711 71 191 0.0 0.0 0.00 0.00 0.00 95 1013.5
20260509051213 71 125 1.0 0.0 0.00 0.00 0.00 95 1013.5
20260509050713 71 147 0.0 0.0 0.00 0.00 0.00 95 1013.5
20260509050216 71 184 0.0 0.0 0.00 0.00 0.00 95 1013.5
20260509045714 71 174 0.0 0.0 0.00 0.00 0.00 95 1013.5
20260509045215 71 182 0.0 0.0 0.00 0.00 0.00 95 1013.5
20260509044711 70 179 0.0 0.0 0.00 0.00 0.00 95 1013.5
20260509044213 70 193 0.0 0.0 0.00 0.00 0.00 95 1013.5
20260509043712 70 176 0.0 0.0 0.00 0.00 0.00 94 1013.5
20260509043212 69 187 0.0 0.0 0.00 0.00 0.00 94 1013.2
20260509042716 69 201 0.0 0.0 0.00 0.00 0.00 94 1013.2
20260509042213 69 199 0.0 0.0 0.00 0.00 0.00 94 1013.2
20260509041713 69 176 0.0 0.0 0.00 0.00 0.00 94 1012.9
20260509041213 68 161 0.0 0.0 0.00 0.00 0.00 94 1012.9
20260509040714 68 188 0.0 0.0 0.00 0.00 0.00 94 1012.9
20260509040216 68 170 0.0 0.0 0.00 0.00 0.00 93 1012.9
20260509035714 68 175 0.0 0.0 0.00 0.00 0.00 93 1012.9
20260509035212 68 173 0.0 0.0 0.00 0.00 0.00 93 1012.5
20260509034713 68 175 0.0 0.0 0.00 0.00 0.00 93 1012.5
20260509034214 68 189 0.0 0.0 0.00 0.00 0.00 93 1012.5
20260509033714 69 195 0.0 0.0 0.00 0.00 0.00 93 1012.5
20260509033217 69 184 0.0 0.0 0.00 0.00 0.00 93 1012.5
20260509032714 68 182 0.0 0.0 0.00 0.00 0.00 92 1012.5
20260509032211 68 174 0.0 0.0 0.00 0.00 0.00 92 1012.5
20260509031729 69 182 0.0 0.0 0.00 0.00 0.00 92 1012.5
20260509031227 69 165 0.0 0.0 0.00 0.00 0.00 92 1012.5
20260509030728 69 183 0.0 0.0 0.00 0.00 0.00 92 1012.5
20260509030227 69 184 0.0 0.0 0.00 0.00 0.00 91 1012.5
20260509025726 69 171 0.0 0.0 0.00 0.00 0.00 91 1012.5
20260509025229 69 169 0.0 0.0 0.00 0.00 0.00 91 1012.5
20260509024729 69 174 0.0 0.0 0.00 0.00 0.00 91 1012.5
20260509024226 70 176 0.0 0.0 0.00 0.00 0.00 90 1012.5
20260509023728 70 175 0.0 0.0 0.00 0.00 0.00 90 1012.2
20260509023226 70 197 0.0 0.0 0.00 0.00 0.00 90 1012.2
20260509022726 70 171 0.0 0.0 0.00 0.00 0.00 90 1012.2
20260509022225 70 173 0.0 0.0 0.00 0.00 0.00 90 1012.2
20260509021724 71 182 0.0 0.0 0.00 0.00 0.00 90 1011.9
20260509021225 71 156 0.0 0.0 0.00 0.00 0.00 89 1011.9
20260509020726 71 155 0.0 0.0 0.00 0.00 0.00 88 1011.9
20260509020225 71 161 0.0 0.0 0.00 0.00 0.00 88 1011.9
20260509015724 72 184 0.0 0.0 0.00 0.00 0.00 87 1011.5
20260509015224 72 168 0.0 0.0 0.00 0.00 0.00 87 1011.5
20260509014725 73 192 0.0 0.0 0.00 0.00 0.00 87 1011.5
20260509014227 73 195 0.0 0.0 0.00 0.00 0.00 86 1011.5
20260509013724 73 200 0.0 0.0 0.00 0.00 0.00 86 1011.5
20260509013225 73 199 0.0 0.0 0.00 0.00 0.00 86 1011.5
20260509012725 73 145 0.0 0.0 0.00 0.00 0.00 86 1011.2
20260509012223 73 171 2.0 0.0 0.00 0.00 0.00 85 1011.2
20260509011724 74 196 2.0 0.0 0.00 0.00 0.00 85 1011.2
20260509011225 74 174 1.0 0.0 0.00 0.00 0.00 84 1011.5
20260509010722 74 196 0.0 0.0 0.00 0.00 0.00 83 1011.5
20260509010223 74 168 0.0 0.0 0.00 0.00 0.00 83 1011.2
20260509005722 74 229 3.0 0.0 0.00 0.00 0.00 83 1011.2
20260509005221 75 183 3.0 0.0 0.00 0.00 0.00 82 1011.2
20260509004721 75 171 3.0 0.0 0.00 0.00 0.00 82 1011.2
20260509004221 75 184 3.0 0.0 0.00 0.00 0.00 82 1011.2
20260509003722 75 189 2.0 0.0 0.00 0.00 0.00 81 1011.2
20260509003224 75 211 1.0 0.0 0.00 0.00 0.00 81 1011.5
20260509002725 75 174 2.0 0.0 0.00 0.00 0.00 81 1011.2
20260509002221 75 169 3.0 0.0 0.00 0.00 0.00 81 1011.2
20260509001722 75 178 2.0 0.0 0.00 0.00 0.00 81 1011.5
20260509001224 75 177 3.0 0.0 0.00 0.00 0.00 80 1011.2
20260509000721 76 205 3.0 0.0 0.00 0.00 0.00 80 1011.2
20260509000226 75 179 3.0 0.0 0.00 0.00 0.00 80 1011.2
20260508235729 75 120 3.0 0.0 0.00 0.00 0.00 80 1011.5
20260508235220 75 184 3.0 0.0 0.00 0.00 0.00 80 1011.5
20260508234721 76 170 2.0 0.0 0.00 0.00 0.00 80 1011.5
20260508234221 76 223 2.0 0.0 0.00 0.00 0.00 79 1011.5
20260508233719 76 127 3.0 0.0 0.00 0.00 0.00 79 1011.5
20260508233220 76 158 4.0 0.0 0.00 0.00 0.00 79 1011.5
20260508232718 76 138 3.0 0.0 0.00 0.00 0.00 79 1011.5
20260508232218 76 99 3.0 0.0 0.00 0.00 0.00 79 1011.2
20260508231719 76 207 4.0 0.0 0.00 0.00 0.00 79 1011.5
20260508231219 76 230 5.0 0.0 0.00 0.00 0.00 79 1011.5
20260508230719 75 188 4.0 0.0 0.00 0.00 0.00 80 1011.5
20260508230218 75 139 3.0 0.0 0.00 0.00 0.00 80 1011.5
20260508225718 75 191 3.0 0.0 0.00 0.00 0.00 80 1011.2
20260508225218 75 84 5.0 0.0 0.00 0.00 0.00 79 1011.5
20260508224719 75 112 6.0 0.0 0.00 0.00 0.00 79 1011.5
20260508224218 75 184 6.0 0.0 0.00 0.00 0.00 80 1011.5
20260508223718 75 149 4.0 0.0 0.00 0.00 0.00 81 1011.5
20260508223217 75 113 4.0 0.0 0.00 0.00 0.00 81 1011.5
20260508222719 75 135 3.0 0.0 0.00 0.00 0.00 81 1011.9
20260508222317 75 208 3.0 0.0 0.00 0.00 0.00 81 1011.9
20260508221217 75 218 4.0 0.0 0.00 0.00 0.00 81 1011.9
20260508220716 75 20 4.0 0.0 0.00 0.00 0.00 80 1011.9
20260508220215 75 113 3.0 0.0 0.00 0.00 0.00 80 1011.9
20260508215715 75 113 4.0 0.0 0.00 0.00 0.00 80 1011.9
20260508215217 75 154 6.0 0.0 0.00 0.00 0.00 79 1011.9
20260508214715 76 124 3.0 0.0 0.00 0.00 0.00 80 1011.9
20260508214214 75 199 5.0 0.0 0.00 0.00 0.00 80 1011.9
20260508213716 75 241 7.0 0.0 0.00 0.00 0.00 80 1011.9
20260508213214 76 166 5.0 0.0 0.00 0.00 0.00 79 1012.2
20260508212715 76 102 6.0 0.0 0.00 0.00 0.00 78 1012.2
20260508212216 76 132 6.0 0.0 0.00 0.00 0.00 78 1012.2
20260508211714 76 75 6.0 0.0 0.00 0.00 0.00 78 1012.2
20260508211213 76 103 6.0 0.0 0.00 0.00 0.00 79 1012.2
20260508210715 75 65 4.0 0.0 0.00 0.00 0.00 79 1012.2
20260508210213 76 117 6.0 0.0 0.00 0.00 0.00 78 1012.5
20260508205715 76 134 6.0 0.0 0.00 0.00 0.00 78 1012.5
20260508205213 75 148 6.0 0.0 0.00 0.00 0.00 79 1012.5
20260508204717 75 110 5.0 0.0 0.00 0.00 0.00 79 1012.5
20260508204213 75 173 7.0 0.0 0.00 0.00 0.00 79 1012.5
20260508203714 75 105 6.0 0.0 0.00 0.00 0.00 78 1012.9
20260508193711 75 153 4.0 0.0 0.00 0.00 0.00 80 1012.9
20260508193212 74 218 5.0 0.0 0.00 0.00 0.00 80 1013.2
20260508192712 74 70 5.0 0.0 0.00 0.00 0.00 80 1013.2
20260508192213 74 202 4.0 0.0 0.00 0.00 0.00 81 1013.2
20260508191710 74 72 7.0 0.0 0.00 0.00 0.00 80 1013.2
20260508191213 74 126 5.0 0.0 0.00 0.00 0.00 80 1013.2
20260508190713 74 56 6.0 0.0 0.00 0.00 0.00 80 1013.2
20260508190213 74 158 4.0 0.0 0.00 0.00 0.00 79 1013.2
20260508185711 74 257 5.0 0.0 0.00 0.00 0.00 79 1013.2
20260508185210 74 179 5.0 0.0 0.00 0.00 0.00 80 1013.2
20260508184713 73 47 5.0 0.0 0.00 0.00 0.00 80 1013.5
20260508184212 73 230 5.0 0.0 0.00 0.00 0.00 80 1013.5
20260508183711 73 137 6.0 0.0 0.00 0.00 0.00 80 1013.5
20260508183214 73 207 3.0 0.0 0.00 0.00 0.00 79 1013.5
20260508182711 74 91 5.0 0.0 0.00 0.00 0.00 79 1013.5
20260508182226 74 340 8.0 0.0 0.00 0.00 0.00 80 1013.5
20260508181711 72 192 6.0 0.0 0.00 0.00 0.00 82 1013.5
20260508181212 72 139 4.0 0.0 0.00 0.00 0.00 83 1013.9
20260508180710 72 96 6.0 0.0 0.00 0.00 0.00 83 1013.9
20260508180211 71 109 6.0 0.0 0.00 0.00 0.00 84 1014.2
20260508175710 71 174 4.0 0.0 0.00 0.00 0.00 84 1014.2
20260508175209 71 174 3.0 0.0 0.00 0.00 0.00 84 1014.2
20260508174711 71 132 3.0 0.0 0.00 0.00 0.00 84 1014.2
20260508174212 71 131 3.0 0.0 0.00 0.00 0.00 84 1014.2
20260508173712 70 143 2.0 0.0 0.00 0.00 0.00 84 1014.6
20260508173211 70 110 3.0 0.0 0.00 0.00 0.00 84 1014.6
20260508172719 70 239 2.0 0.0 0.00 0.00 0.00 84 1014.6
20260508172221 70 245 2.0 0.0 0.00 0.00 0.00 84 1014.6
20260508171724 70 249 3.0 0.0 0.00 0.00 0.00 84 1014.6
20260508171220 70 98 4.0 0.0 0.00 0.00 0.00 84 1014.6
20260508170722 69 220 2.0 0.0 0.00 0.00 0.00 84 1014.6
20260508170223 69 195 3.0 0.0 0.00 0.00 0.00 84 1014.6
20260508165719 69 268 2.0 0.0 0.00 0.00 0.00 85 1014.6
20260508165220 69 281 4.0 0.0 0.00 0.00 0.00 85 1014.9
20260508164719 68 250 3.0 0.0 0.00 0.00 0.00 86 1014.6
20260508164217 68 249 4.0 0.0 0.00 0.00 0.00 87 1014.9
20260508163719 67 249 4.0 0.0 0.00 0.00 0.00 87 1014.9
20260508163219 67 258 3.0 0.0 0.00 0.00 0.00 87 1014.9
20260508162720 67 267 3.0 0.0 0.00 0.00 0.00 88 1014.9
20260508162218 66 240 3.0 0.0 0.00 0.00 0.00 88 1014.9
20260508161718 66 299 4.0 0.0 0.00 0.00 0.00 89 1015.2
20260508161219 66 263 6.0 0.0 0.00 0.00 0.00 89 1015.2
20260508160717 65 275 3.0 0.0 0.00 0.00 0.00 89 1015.2
20260508160216 65 250 3.0 0.0 0.00 0.00 0.00 90 1015.2
20260508155720 65 280 3.0 0.0 0.00 0.00 0.00 90 1015.2
20260508155319 64 290 3.0 0.0 0.00 0.00 0.00 90 1015.6
20260508154216 64 238 3.0 0.0 0.00 0.00 0.00 90 1015.6
20260508153918 64 234 4.0 0.0 0.00 0.00 0.00 90 1015.6
20260508152216 63 262 3.0 0.0 0.00 0.00 0.00 90 1015.9
20260508151715 63 274 4.0 0.0 0.00 0.00 0.00 90 1016.3
20260508151215 63 230 3.0 0.0 0.00 0.00 0.00 90 1015.9
20260508150715 63 251 4.0 0.0 0.00 0.00 0.00 90 1015.9
20260508150216 63 308 3.0 0.0 0.00 0.00 0.00 90 1015.9
20260508145716 63 221 3.0 0.0 0.00 0.00 0.00 90 1015.9
20260508145214 63 9 3.0 0.0 0.00 0.00 0.00 90 1015.9
20260508144714 62 263 3.0 0.0 0.00 0.00 0.00 90 1015.9
20260508144213 62 306 3.0 0.0 0.00 0.00 0.00 90 1015.9
20260508143712 62 247 3.0 0.0 0.00 0.00 0.00 90 1015.9
20260508143214 62 245 4.0 0.0 0.00 0.00 0.00 89 1015.9
20260508142714 62 317 5.0 0.0 0.00 0.00 0.00 89 1015.9
20260508142213 62 265 3.0 0.0 0.00 0.00 0.00 89 1016.3
20260508141716 62 259 4.0 0.0 0.00 0.00 0.00 89 1016.3
20260508141214 62 280 3.0 0.0 0.00 0.00 0.00 88 1015.9
20260508140715 62 287 3.0 0.0 0.00 0.00 0.00 88 1016.3
20260508140212 62 290 3.0 0.0 0.00 0.00 0.00 88 1016.3
20260508135715 62 287 4.0 0.0 0.00 0.00 0.00 88 1016.3
20260508135212 62 234 5.0 0.0 0.00 0.00 0.00 88 1015.9
20260508134713 62 255 4.0 0.0 0.00 0.00 0.00 87 1015.9
20260508134212 62 244 3.0 0.0 0.00 0.00 0.00 87 1015.9
20260508133713 62 251 3.0 0.0 0.00 0.00 0.00 88 1015.9
20260508133214 62 239 4.0 0.0 0.00 0.00 0.00 87 1015.9
20260508132711 62 203 3.0 0.0 0.00 0.00 0.00 87 1015.6
20260508132212 62 237 2.0 0.0 0.00 0.00 0.00 87 1015.6
20260508131712 62 278 4.0 0.0 0.00 0.00 0.00 87 1015.6
20260508131211 62 260 2.0 0.0 0.00 0.00 0.00 87 1015.2
20260508130712 62 215 0.0 0.0 0.00 0.00 0.00 87 1015.2
20260508130213 62 194 3.0 0.0 0.00 0.00 0.00 87 1015.6
20260508125710 62 143 2.0 0.0 0.00 0.00 0.00 87 1015.6
20260508125212 62 185 0.0 0.0 0.00 0.00 0.00 87 1015.9
20260508124713 62 243 2.0 0.0 0.00 0.00 0.00 87 1015.9
20260508124211 62 207 1.0 0.0 0.00 0.00 0.00 87 1015.9
20260508123712 62 237 3.0 0.0 0.00 0.00 0.00 87 1015.9
20260508123210 62 219 2.0 0.0 0.00 0.00 0.00 87 1015.9
20260508122714 62 284 3.0 0.0 0.00 0.00 0.00 87 1015.6
20260508122213 62 215 2.0 0.0 0.00 0.00 0.00 86 1015.6
20260508121712 62 228 2.0 0.0 0.00 0.00 0.00 86 1015.9
20260508121211 62 211 0.0 0.0 0.00 0.00 0.00 86 1015.9
20260508120711 62 207 1.0 0.0 0.00 0.00 0.00 86 1015.9
20260508120211 62 196 0.0 0.0 0.00 0.00 0.00 86 1016.3
20260508115711 62 196 2.0 0.0 0.00 0.00 0.00 86 1016.3
20260508115212 62 227 2.0 0.0 0.00 0.00 0.00 86 1016.6
20260508114713 62 219 2.0 0.0 0.00 0.00 0.00 86 1016.3
20260508114212 62 225 2.0 0.0 0.00 0.00 0.00 86 1015.9
20260508113712 61 231 2.0 0.0 0.00 0.00 0.00 86 1015.9
20260508113210 61 169 5.0 0.0 0.00 0.00 0.00 86 1015.6
20260508112713 61 263 4.0 0.0 0.00 0.00 0.00 86 1015.6
20260508112211 61 211 3.0 0.0 0.00 0.00 0.00 87 1015.9
20260508111710 61 290 3.0 0.0 0.00 0.00 0.00 87 1016.3
20260508111211 62 281 4.0 0.0 0.00 0.00 0.00 86 1016.3
20260508110713 62 294 4.0 0.0 0.00 0.00 0.00 86 1016.3
20260508110245 62 295 3.0 0.0 0.00 0.00 0.00 86 1015.9
20260508105746 62 139 3.0 0.0 0.00 0.00 0.00 85 1015.9
20260508105246 62 192 2.0 0.0 0.00 0.00 0.00 85 1015.9